Home > Time Zones > World Clock > Weather > India > Gonda > Past weeks

Flag for India Weather past 2 weeks in Gonda, Uttar Pradesh, India

Now
88 °F

Partly cloudy.


Feels Like: 105 °F
Forecast: 82 / 100 °F
Wind: 2 mph from North

Location: Lucknow / Amausi

Current Time: Jul 30, 2014 at 8:54:18 PM

Latest Report: Jul 30, 2014 at 8:00 PM


Visibility: 2 mi

Pressure: 29.53 "Hg

Humidity: 79%

Dew point: 81 °F

Location of GondaLocation

Historic Weather in Gonda — Graph

°F

Gonda temperature yesterday

Maximum temperature yesterday: 91 °F (at 1:00 PM)
Minimum temperature yesterday: 79 °F (at 3:00 AM)
Average temperature yesterday: 87 °F

Past Weeks' High & Low Weather Summary

 TemperatureHumidityPressure
High102 °F (Jul 21, 12:30 PM)100% (Jul 18, 5:00 AM)29.68 "Hg (Jul 18, 5:00 AM)
Low77 °F (Jul 18, 11:30 AM)51% (Jul 27, 9:00 AM)29.36 "Hg (Jul 17, 4:30 PM)
Average86 °F83%29.49 "Hg
* Reported Jul 15 8:00 PM — Jul 30 7:30 PM, Gonda, Weather by CustomWeather, © 2014

Note: Actual official high and low records may vary slightly from our data, if they occured in-between our weather recording intervals... More about our weather records

Advertising

Gonda weather history for previous 24 hours

 ConditionsComfort  
Time TempWeatherWind HumidityBarometerVisibility
7:30 PM
Jul 30
88 °FPartly cloudy.2 mph84%29.53 "Hg2 mi
7:00 PM90 °FBroken clouds.3 mph79%29.50 "Hg3 mi
6:30 PM91 °FBroken clouds.3 mph75%29.50 "Hg3 mi
6:00 PM91 °FBroken clouds.3 mph75%29.47 "Hg3 mi
5:30 PM93 °FBroken clouds.3 mph71%29.47 "Hg3 mi
5:00 PM95 °FBroken clouds.5 mph63%29.47 "Hg3 mi
4:30 PM95 °FBroken clouds.7 mph63%29.47 "Hg3 mi
4:00 PM95 °FBroken clouds.7 mph63%29.47 "Hg3 mi
3:30 PM95 °FBroken clouds.7 mph63%29.47 "Hg3 mi
3:00 PM97 °FBroken clouds.7 mph63%29.47 "Hg3 mi
2:30 PM97 °FBroken clouds.7 mph63%29.50 "Hg3 mi
2:00 PM99 °FBroken clouds.7 mph60%29.50 "Hg3 mi
1:30 PM99 °FBroken clouds.6 mph60%29.50 "Hg3 mi
1:00 PM99 °FBroken clouds.7 mph60%29.53 "Hg3 mi
12:30 PM95 °FBroken clouds.6 mph67%29.53 "Hg3 mi
12:00 PM95 °FBroken clouds.6 mph67%29.56 "Hg3 mi
11:30 AM95 °FBroken clouds.8 mph67%29.56 "Hg3 mi
11:00 AM93 °FBroken clouds.7 mph75%29.56 "Hg3 mi
10:30 AM93 °FBroken clouds.6 mph75%29.56 "Hg3 mi
10:00 AM93 °FBroken clouds.5 mph75%29.56 "Hg3 mi
9:30 AM91 °FBroken clouds.6 mph80%29.56 "Hg3 mi
8:30 AM90 °FBroken clouds.6 mph79%29.56 "Hg3 mi
8:00 AM88 °FBroken clouds.3 mph84%29.56 "Hg2 mi
7:30 AM86 °FPartly sunny.2 mph89%29.56 "Hg2 mi
7:00 AM84 °FBroken clouds.2 mph89%29.56 "Hg2 mi
6:30 AM84 °FBroken clouds.2 mph89%29.53 "Hg2 mi
6:00 AM82 °FPartly sunny.2 mph89%29.53 "Hg2 mi
5:30 AM82 °FPassing clouds.2 mph89%29.53 "Hg2 mi
5:00 AM82 °FPassing clouds.2 mph94%29.53 "Hg2 mi
4:00 AM84 °FPartly cloudy.3 mph89%29.50 "Hg2 mi
3:00 AM84 °FPartly cloudy.3 mph89%29.50 "Hg2 mi
2:00 AM84 °FPartly cloudy.3 mph89%29.50 "Hg2 mi
1:00 AM84 °FPartly cloudy.No wind89%29.53 "Hg2 mi
12:00 AM86 °FPartly cloudy.5 mph84%29.53 "Hg2 mi
11:00 PM
Jul 29
86 °FPartly cloudy.3 mph84%29.56 "Hg2 mi
10:00 PM86 °FPartly cloudy.No wind84%29.56 "Hg2 mi
9:00 PM86 °FPartly cloudy.2 mph79%29.53 "Hg2 mi
8:30 PM86 °FPartly cloudy.2 mph79%29.53 "Hg2 mi
8:00 PM91 °FPartly cloudy.2 mph71%29.53 "Hg2 mi
Weather by CustomWeather, © 2014

See weather overviewHow to use our weather pages